Waarnemingen

Advertentie
Mijn weer
Messina, Italië (16420): temperatuur & dauwpunt: 16.10.2017 17:00:00 - 22.10.2017 17:00:00 (CEST)Messina, Italië (16420): windsnelheid: 16.10.2017 17:00:00 - 22.10.2017 17:00:00 (CEST)Messina, Italië (16420): windrichting: 16.10.2017 17:00:00 - 22.10.2017 17:00:00 (CEST)Messina, Italië (16420): luchtdruk: 16.10.2017 17:00:00 - 22.10.2017 17:00:00 (CEST)Messina, Italië (16420): zicht: 16.10.2017 17:00:00 - 22.10.2017 17:00:00 (CEST)Messina, Italië (16420): Zonneschijnduur: 16.10.2017 17:00:00 - 22.10.2017 17:00:00 (CEST)
Datum & Tijd tt [°C] td [°C] ff [km/u] ff [kn] dd ppp [hPa] vv [km] sd [min]
22.10.2017 17:00:00 23,8 15,0 13 7 NO 1016,3 20 60
22.10.2017 16:00:00 24,2 14,6 16 9 NO 1016,4 10 60
22.10.2017 15:00:00 24,2 15,4 21 11 ONO 1017,2 10 60
22.10.2017 14:00:00 24,0 15,2 21 11 NO 1018,2 10 60
22.10.2017 13:00:00 23,8 16,4 21 11 ONO 1019,3 10 60
22.10.2017 12:00:00 23,2 16,0 16 9 NO 1019,6 10 60
22.10.2017 11:00:00 23,6 16,4 21 11 NO 1020,0 10 60
22.10.2017 10:00:00 22,0 17,8 15 8 N 1019,9 10 60
22.10.2017 09:00:00 20,8 16,6 13 7 N 1019,8 10 54
22.10.2017 08:00:00 19,6 17,0 9 5 NNO 1020,0 10 0
22.10.2017 07:00:00 19,8 16,8 9 5 NNO 1019,9 10 -
22.10.2017 06:00:00 20,0 17,2 11 6 NNO 1019,9 10 -
22.10.2017 05:00:00 20,2 17,0 11 6 NO 1020,1 10 -
22.10.2017 04:00:00 20,4 17,0 9 5 NO 1020,0 10 -
22.10.2017 03:00:00 20,6 17,4 11 6 NNO 1020,6 10 -
22.10.2017 02:00:00 20,4 17,2 13 7 NW 1020,6 10 -
22.10.2017 01:00:00 20,4 17,0 11 6 NNO 1020,6 10 -
22.10.2017 00:00:00 20,2 17,6 11 6 NNO 1020,6 10 -
21.10.2017 23:00:00 20,4 17,6 9 5 N 1020,6 10 -
21.10.2017 22:00:00 21,0 17,6 5 3 N 1020,6 10 -
21.10.2017 21:00:00 21,0 17,2 8 4 N 1020,2 12 -
21.10.2017 20:00:00 21,4 17,4 9 5 N 1020,1 10 -
21.10.2017 19:00:00 22,0 15,8 8 4 N 1019,8 10 0
21.10.2017 18:00:00 23,0 12,3 9 5 NNO 1019,4 10 54
21.10.2017 17:00:00 24,4 8,8 13 7 N 1019,4 10 60
21.10.2017 16:00:00 24,2 9,0 16 9 NNW 1019,4 10 60
21.10.2017 15:00:00 24,2 17,2 22 12 ONO 1019,5 10 60
21.10.2017 14:00:00 24,0 16,8 11 6 ZZO 1020,2 10 60
21.10.2017 13:00:00 24,0 16,8 13 7 OZO 1020,3 10 60
21.10.2017 12:00:00 23,6 17,1 15 8 ZZO 1020,4 10 60
21.10.2017 11:00:00 22,8 16,1 13 7 ZZO 1020,4 10 60
21.10.2017 10:00:00 22,0 15,8 9 5 OZO 1020,2 10 60
21.10.2017 09:00:00 19,8 15,5 8 4 ZZW 1019,4 10 60
21.10.2017 08:00:00 18,2 16,0 5 3 WNW 1019,3 10 0
21.10.2017 07:00:00 18,4 16,7 5 3 NO 1019,3 10 -
21.10.2017 06:00:00 18,6 16,9 8 4 W 1019,2 10 -
21.10.2017 05:00:00 18,4 16,4 8 4 W 1019,4 10 -
21.10.2017 04:00:00 18,4 15,8 8 4 WZW 1019,5 10 -
21.10.2017 03:00:00 18,6 14,3 11 6 W 1019,4 10 -
21.10.2017 02:00:00 18,8 13,9 8 4 OZO 1019,4 10 -
21.10.2017 01:00:00 19,6 15,2 9 5 WZW 1019,3 10 -
21.10.2017 00:00:00 20,0 17,4 8 4 WZW 1019,3 10 -
20.10.2017 23:00:00 20,4 17,4 5 3 WZW 1019,3 10 -
20.10.2017 22:00:00 20,6 16,2 11 6 W 1019,2 10 -
20.10.2017 21:00:00 21,0 16,4 11 6 WZW 1018,5 10 -
20.10.2017 20:00:00 21,0 16,8 15 8 WZW 1018,5 10 -
20.10.2017 19:00:00 21,8 17,6 9 5 WZW 1018,3 10 -
20.10.2017 18:00:00 22,4 17,1 11 6 ZZW 1017,9 10 0
20.10.2017 17:00:00 23,4 16,7 11 6 Z 1017,9 10 60
20.10.2017 16:00:00 23,2 16,3 13 7 ZZW 1017,7 10 60
20.10.2017 15:00:00 23,4 16,2 15 8 ZZW 1017,8 10 60
20.10.2017 14:00:00 23,6 16,9 16 9 ZW 1018,0 10 60
20.10.2017 13:00:00 23,4 15,2 18 10 ZZW 1018,3 10 60
20.10.2017 12:00:00 23,0 15,0 16 9 ZZW 1018,4 10 60
20.10.2017 11:00:00 22,4 17,0 16 9 ZZW 1018,2 10 60
20.10.2017 10:00:00 21,4 16,5 13 7 ZZW 1017,7 10 60
20.10.2017 09:00:00 19,8 15,8 9 5 ZZW 1017,6 10 36
20.10.2017 08:00:00 18,8 16,2 9 5 WZW 1017,4 10 0
20.10.2017 07:00:00 19,2 17,2 5 3 - 1017,3 10 -
20.10.2017 06:00:00 19,2 16,8 11 6 W 1017,2 10 -
20.10.2017 05:00:00 20,0 17,6 8 4 W 1017,2 10 -
20.10.2017 04:00:00 20,8 18,7 13 7 ZW 1017,2 10 -
20.10.2017 03:00:00 21,0 18,8 13 7 ZW 1017,2 10 -
20.10.2017 02:00:00 21,0 18,2 18 10 ZW 1017,2 10 -
20.10.2017 01:00:00 21,0 18,2 16 9 N 1017,1 10 -
20.10.2017 00:00:00 19,8 17,2 13 7 WZW 1017,4 10 -
19.10.2017 23:00:00 20,0 15,7 8 4 ONO 1017,4 10 -
19.10.2017 22:00:00 20,6 12,6 11 6 WZW 1017,4 10 -
19.10.2017 21:00:00 20,4 13,8 15 8 WZW 1017,4 10 -
19.10.2017 20:00:00 21,2 16,2 11 6 WZW 1017,1 10 -
19.10.2017 19:00:00 21,4 16,1 13 7 ZW 1017,1 10 -
19.10.2017 18:00:00 21,8 15,4 11 6 ZZW 1017,1 10 18
19.10.2017 17:00:00 22,8 15,6 13 7 ZZW 1017,2 10 60
19.10.2017 16:00:00 23,6 17,1 13 7 ZZO 1017,6 10 60
19.10.2017 15:00:00 23,4 14,4 15 8 ONO 1017,6 10 60
19.10.2017 14:00:00 22,4 13,7 13 7 ONO 1018,1 10 42
19.10.2017 13:00:00 23,4 13,6 16 9 O 1018,1 10 48
19.10.2017 12:00:00 23,0 14,8 18 10 ONO 1018,1 10 60
19.10.2017 11:00:00 22,0 15,6 16 9 ONO 1018,0 10 60
19.10.2017 10:00:00 21,4 16,6 16 9 NO 1017,9 10 60
19.10.2017 09:00:00 19,6 16,2 15 8 NO 1017,7 10 60
19.10.2017 08:00:00 18,8 16,0 11 6 NNO 1017,8 10 0
19.10.2017 07:00:00 18,8 16,2 13 7 N 1018,2 10 0
19.10.2017 06:00:00 18,8 15,9 11 6 N 1018,2 10 -
19.10.2017 05:00:00 18,6 15,7 9 5 NNW 1018,2 10 -
19.10.2017 04:00:00 18,4 15,7 9 5 N 1018,3 10 -
19.10.2017 03:00:00 18,6 14,9 9 5 NW 1018,5 10 -
19.10.2017 02:00:00 19,0 15,3 8 4 N 1018,5 10 -
19.10.2017 01:00:00 19,2 15,7 9 5 NNO 1018,5 10 -
19.10.2017 00:00:00 19,4 15,7 13 7 N 1018,5 10 -
18.10.2017 23:00:00 19,6 15,2 13 7 N 1018,5 10 -
18.10.2017 22:00:00 20,0 15,7 9 5 N 1018,5 10 -
18.10.2017 21:00:00 20,2 14,8 8 4 N 1018,5 10 -
18.10.2017 20:00:00 20,6 15,2 13 7 NNO 1018,4 10 -
18.10.2017 19:00:00 20,8 15,4 15 8 N 1018,3 10 0
18.10.2017 18:00:00 21,4 14,8 15 8 NNW 1018,3 10 42
18.10.2017 17:00:00 23,4 16,0 11 6 NNO 1018,4 10 60
18.10.2017 16:00:00 23,8 12,8 13 7 N 1018,3 10 60
18.10.2017 15:00:00 23,8 15,6 18 10 NO 1019,0 10 60
18.10.2017 14:00:00 23,8 16,1 22 12 NO 1019,4 10 60
18.10.2017 13:00:00 23,2 15,8 21 11 ONO 1020,0 10 60
18.10.2017 12:00:00 23,4 13,0 13 7 N 1020,3 10 60
18.10.2017 11:00:00 22,2 14,1 15 8 NNO 1020,4 10 60
18.10.2017 10:00:00 21,0 16,2 15 8 ONO 1020,5 10 60
18.10.2017 09:00:00 19,2 15,7 15 8 N 1020,4 10 42
18.10.2017 08:00:00 18,8 16,6 11 6 NNW 1020,4 10 0
18.10.2017 07:00:00 18,8 16,4 13 7 NNW 1020,5 10 -
18.10.2017 06:00:00 18,8 16,8 15 8 NNW 1020,5 10 -
18.10.2017 05:00:00 18,8 16,6 13 7 NNW 1021,1 10 -
18.10.2017 04:00:00 18,8 16,4 13 7 N 1021,5 10 -
18.10.2017 03:00:00 19,0 16,8 11 6 N 1021,6 10 -
18.10.2017 02:00:00 19,0 16,6 15 8 NNO 1022,3 10 -
18.10.2017 01:00:00 19,0 16,4 13 7 N 1022,4 10 -
18.10.2017 00:00:00 19,2 16,6 11 6 N 1022,5 10 -
17.10.2017 23:00:00 19,4 16,4 13 7 N 1022,6 10 -
17.10.2017 22:00:00 19,8 16,7 9 5 NW 1022,5 10 -
17.10.2017 21:00:00 20,2 16,8 8 4 NNW 1022,6 10 -
17.10.2017 20:00:00 21,0 17,8 5 3 NNW 1022,6 10 -
17.10.2017 19:00:00 21,4 17,6 8 4 W 1022,6 10 0
17.10.2017 18:00:00 22,2 17,4 11 6 ZW 1022,6 10 48
17.10.2017 17:00:00 23,6 14,3 13 7 ZZW 1022,7 10 60
17.10.2017 16:00:00 23,4 12,7 15 8 ZZW 1023,0 10 60
17.10.2017 15:00:00 23,2 13,1 15 8 ZZW 1023,4 10 60
17.10.2017 14:00:00 22,8 15,1 16 9 ZZW 1024,2 10 60
17.10.2017 13:00:00 22,8 14,1 18 10 ZZW 1024,8 10 60
17.10.2017 12:00:00 22,4 15,0 16 9 ZZW 1025,0 10 60
17.10.2017 11:00:00 21,8 15,2 15 8 ZZW 1025,3 10 60
17.10.2017 10:00:00 21,2 14,8 13 7 OZO 1025,3 10 60
17.10.2017 09:00:00 19,0 14,5 8 4 NNO 1025,3 10 60
17.10.2017 08:00:00 17,2 15,6 5 3 - 1024,9 10 6
17.10.2017 07:00:00 17,4 15,7 5 3 ZW 1024,8 10 -
17.10.2017 06:00:00 17,6 15,8 5 3 W 1024,8 10 -
17.10.2017 05:00:00 17,6 15,2 9 5 W 1024,7 10 -
17.10.2017 04:00:00 17,8 16,0 8 4 W 1025,3 10 -
17.10.2017 03:00:00 18,0 16,3 5 3 - 1025,5 10 -
17.10.2017 02:00:00 18,4 16,7 5 3 Z 1025,6 10 -
17.10.2017 01:00:00 18,6 16,6 5 3 ZW 1026,1 10 -
17.10.2017 00:00:00 18,8 16,6 5 3 - 1026,3 10 -
16.10.2017 23:00:00 19,0 16,4 5 3 - 1026,3 10 -
16.10.2017 22:00:00 19,2 16,6 5 3 - 1026,3 10 -
16.10.2017 21:00:00 20,2 17,4 5 3 - 1026,1 10 -
16.10.2017 20:00:00 20,8 17,8 5 3 NNW 1025,6 10 -
16.10.2017 19:00:00 21,4 17,8 5 3 W 1025,5 10 0
16.10.2017 18:00:00 22,2 17,8 13 7 ONO 1025,5 10 36
16.10.2017 17:00:00 23,6 17,8 16 9 ONO 1025,4 10 60

tt = temperatuur
td = dauwpunt
ff = windsnelheid
dd = windrichting
ppp = luchtdruk
vv = zicht
sd = Zonneschijnduur

Weerstations in de omgeving